COSMOS 2251 DEB

Satellite information

Favourite Embed

Satellite Type and Status

DEBRISIN ORBIT

Key statistics

Satellite COSMOS 2251 DEB at a glance.

Uptime

11819

Days in orbit

Revolutions

≈ 14.0

Per day

Orbit

LEO

Low Earth Orbit

Inclination

73.8

Latest

Satellite identification and parameters

Extended collection of information and parameters for COSMOS 2251 DEB.

Object identification

Identified? True

Debris? True

Object name: COSMOS 2251 DEB

International designator: 1993-036FJ

Object number (NORAD): 33975

Object ID (CCSDS): 33975

Country: COMMONWEALTH OF INDEPENDENT STATES (CIS)

Current information (Y/N): Y

RCS size: SMALL

Orbital parameters

Period: 102.828 minutes

Inclination: 73.8014 deg

SMA: 7270.581 km

Apoapsis: 1031.691 km

Periapsis: 753.2 km

RAAN: 170.4778 deg

Eccentricy: 0.01915192

Argument of periapsis: 311.0427 deg

Mean anomaly: 47.4285 deg

Mean motion: 14.00390343 rev/day

Mean motion (dot): 0.00000869 rev/day2

B* drag term: 0.00051568161 1/REarth

Two-line elements (TLE)

Creation date: Oct. 25, 2025, 3:11 a.m.

Reference frame: TEME

Reference center: EARTH

Epoch: Oct. 24, 2025, 7:07 p.m. UTC

TLE line 0: 0 COSMOS 2251 DEB

TLE line 1: 1 33975U 93036FJ 25297.79664701 .00000869 00000-0 51568-3 0 9994

TLE line 2: 2 33975 73.8014 170.4778 0191519 311.0427 47.4285 14.00390343851449

Live tracking on map

Real-time ground track for satellite COSMOS 2251 DEB.

In-orbit conjunctions

A list of the most updated potential collisions computed for object COSMOS 2251 DEB.

Target Orbit TCA Probability of collision Miss distance Type
COSMOS 1275 DEB LEO 2025-09-28 21:57:47 0.0001034804 116.0 (m) DEBRIS
COSMOS 883 LEO 2025-04-14 23:31:57 0.0003521108 795.0 (m) PAYLOAD

Associated space launch

Military communications satellite. Destroyed in a collision with Iridium 33.

COSMOS 2251 DEB was lifted into orbit during the mission ‘Kosmos-3M | Strela-2M 51’, on board a Kosmos-3M space rocket.

The launch took place on June 16, 1993, 4:17 a.m. from 132/1 (132L).

For more information about the launch, click the button.

Launch to space Kosmos-3M | Strela-2M 51
Kosmos-3M | Strela-2M 51

Agency: N/A

Status: Launch Successful

Launch date: June 16, 1993, 4:17 a.m. UTC

Rocket: Kosmos-3M

Launch pad: 132/1 (132L)

Location: Plesetsk Cosmodrome, Russian Federation

...

Latest news about this satellite

There are no fresh news available about this satellite. Check back as we update our databases every day.


Newsletter sign-up

Weekly statistics, charts and insights to help you stay on top of the space industry.